Regional Weather Roundup
Issued by NWS Goodland, KS

Home | Current Version | Previous Version | Graphics & Text | Print | Product List | Glossary On
Versions: 1 2 3 4 5 6 7 8 9 10 11 12 13 14 15 16 17 18 19 20 21 22 23 24 25 26 27 28 29 30 31 32 33 34 35 36 37 38 39 40 41 42 43 44 45 46 47 48 49 50
000
ASUS43 KGLD 190708
RWRGLD

GOODLAND FORECAST AREA HOURLY WEATHER ROUNDUP
NATIONAL WEATHER SERVICE GOODLAND KS
100 AM MDT TUE SEP 19 2017

...OFFICIAL OBSERVATIONS...

CITY           SKY/WX    TMP DP  RH WIND       PRES   REMARKS
GOODLAND KS    CLEAR     58  52  80 S10       29.83F
HILL CITY KS   CLEAR     67  60  78 S3        29.83F
IMPERIAL NEB   CLEAR     60  53  77 SE10      29.81F
MCCOOK NEB     CLEAR     62  58  86 SE7       29.81F
AKRON CO       CLEAR     60  43  53 S16G25    29.82F
BURLINGTON CO  CLEAR     59  51  75 SE12      29.85F
LIMON CO         N/A    N/A N/A N/A MISG      29.88F
$$

...UNOFFICIAL OBSERVATIONS...

CITY           SKY/WX    TMP DP  RH WIND       PRES   REMARKS
LENORA KS        N/A     63  32  31 MISG        N/A
NORTON KS      CLEAR     63  55  77 S7        29.81F
SHARON SPRINGS   N/A     63  59  87 S9G16       N/A
TRENTON NEB      N/A     60  32  34 SE6         N/A
KIT CARSON CO    N/A     63  54  72 MISG        N/A
YUMA CO        FAIR      52  45  76 SE5       29.81F
$$




USA.gov is the U.S. government's official web portal to all federal, state and local government web resources and services.